Location: Anuling
(14.1239°N, 120.8922°E)
Time: 12:08:24
(UTC+00:00)

Cosmos 2218 Rocket - Pass Details

Date: 12 April 2026
Orbit: 955 x 1005 km, 82.9° (Epoch: 11 May)

Event Time Altitude Azimuth Distance (km) Brightness Sun altitude
Exits shadow 11:48:06 14° 38° (NE) 2,370 5.8 -24.1°
Drops below altitude 10° 11:49:08 10° 32° (NNE) 2,682 6.1 -24.3°
Sets 11:51:55 0° 22° (NNE) 3,626 6.9 -25.0°
